Location: *
(49.4547°N, 7.9131°E)
Time: 03:40:01
(UTC+00:00)

Cosmos 2082 Rocket - Pass Details

Date: 22 September 2019
Orbit: 831 x 855 km, 71.0° (Epoch: 16 October)

Event Time Altitude Azimuth Distance (km) Brightness Sun altitude
Rises 21:29:14 0° 333° (NNW) 3,436 6.4 -34.9°
Reaches altitude 10° 21:32:46 10° 355° (N) 2,499 5.3 -35.2°
Maximum altitude 21:36:14 16° 32° (NNE) 2,096 4.4 -35.5°
Enters shadow 21:36:20 16° 34° (NNE) 2,096 4.4 -35.5°
